contact:dominique.lefevre@mio.osupytheas.fr, maurice.libes@osupytheas.fr, didier.mallarino@osupytheas.fr
Project:EMSO http://www.emso-fr.org/EMSO-France
Depth: 2436.0 m
Title:EMSO Ligure Ouest : Data MII capteur AQUADOPP
Date,Latitude,Longitude,X_East,Y_North,Z_Up,Amplitude_X,Amplitude_Y,Amplitude_Z,Batterie,SoundSpeed,Heading,Pitch,Roll,Pressure,TIS,Speed,Direction
, degrees North, degrees East, m.s-1, m.s-1,m.s-1, 1, 1, 1, Volt, m.s-1, degree, degree, degree, dbar, degree_C, m.s-1, degree
2019-07-20T00:00:41,42.805,6.029,0.001,0.012,0.006,104.0,110.0,101.0,13.4,1505.4,325.8,-0.8,1.9,2470.095,13.34,0.012,4.8
2019-07-20T00:03:42,42.805,6.029,-0.043,0.0,-0.006,104.0,110.0,101.0,13.4,1505.4,325.3,-0.7,1.8,2470.096,13.34,0.043,270.0
2019-07-20T00:06:43,42.805,6.029,-0.021,0.026,0.004,103.0,109.0,99.0,13.3,1505.4,324.2,-0.7,1.8,2470.077,13.34,0.033,321.1
2019-07-20T00:09:44,42.805,6.029,-0.025,0.005,-0.026,103.0,110.0,101.0,13.4,1505.4,325.2,-0.7,1.9,2470.071,13.34,0.025,281.3
2019-07-20T00:12:45,42.805,6.029,0.01,0.016,0.015,106.0,110.0,100.0,13.4,1505.4,328.1,-0.7,1.9,2470.079,13.34,0.018,32.0
2019-07-20T00:15:46,42.805,6.029,-0.003,0.001,-0.01,104.0,109.0,100.0,13.4,1505.4,324.2,-0.7,1.8,2470.028,13.34,0.003,288.4
2019-07-20T00:18:47,42.805,6.029,-0.011,0.012,-0.011,105.0,109.0,100.0,13.3,1505.4,324.5,-0.7,1.8,2470.047,13.34,0.016,317.5
2019-07-20T00:21:48,42.805,6.029,-0.02,0.01,0.003,104.0,110.0,99.0,13.3,1505.4,324.2,-0.7,1.8,2470.072,13.34,0.022,296.6
2019-07-20T00:24:49,42.805,6.029,-0.007,0.012,-0.01,103.0,108.0,100.0,13.4,1505.4,326.1,-0.7,1.9,2470.07,13.34,0.013,329.7
2019-07-20T00:27:50,42.805,6.029,-0.027,0.01,-0.002,105.0,110.0,101.0,13.4,1505.4,327.8,-0.7,1.8,2470.039,13.34,0.028,290.3
2019-07-20T00:30:51,42.805,6.029,-0.012,0.019,-0.022,105.0,109.0,100.0,13.3,1505.4,325.8,-0.7,1.8,2470.056,13.34,0.022,327.7
2019-07-20T00:33:52,42.805,6.029,-0.008,-0.002,0.01,106.0,112.0,101.0,13.4,1505.4,326.3,-0.7,1.8,2470.073,13.34,0.008,256.0
2019-07-20T00:36:53,42.805,6.029,-0.015,0.007,-0.009,106.0,113.0,101.0,13.4,1505.4,325.8,-0.7,1.8,2470.06,13.34,0.016,295.0
2019-07-20T00:39:54,42.805,6.029,-0.035,0.022,-0.034,104.0,111.0,101.0,13.3,1505.4,326.0,-0.7,1.8,2470.036,13.34,0.041,302.2
2019-07-20T00:42:55,42.805,6.029,-0.027,0.0,-0.019,104.0,110.0,100.0,13.3,1505.4,328.0,-0.7,1.8,2470.077,13.34,0.026,270.0
2019-07-20T00:45:56,42.805,6.029,-0.04,0.005,-0.035,104.0,109.0,101.0,13.4,1505.4,325.2,-0.7,1.9,2470.073,13.34,0.04,277.1
2019-07-20T00:48:57,42.805,6.029,-0.027,0.015,-0.021,103.0,108.0,100.0,13.4,1505.4,325.6,-0.7,1.8,2470.087,13.34,0.03,299.1
2019-07-20T00:51:58,42.805,6.029,-0.001,0.021,0.001,103.0,109.0,101.0,13.4,1505.4,324.1,-0.7,1.9,2470.074,13.34,0.021,357.3
2019-07-20T00:54:59,42.805,6.029,-0.017,0.019,0.003,104.0,110.0,101.0,13.3,1505.4,325.4,-0.7,1.9,2470.067,13.34,0.025,318.2
2019-07-20T00:58:00,42.805,6.029,-0.017,0.018,0.001,104.0,109.0,101.0,13.4,1505.4,327.9,-0.8,1.8,2470.021,13.34,0.024,316.6
2019-07-20T01:01:01,42.805,6.029,-0.029,0.012,0.008,104.0,110.0,100.0,13.4,1505.4,326.3,-0.8,1.8,2469.99,13.34,0.031,292.5
2019-07-20T01:04:02,42.805,6.029,-0.022,0.01,-0.036,102.0,112.0,100.0,13.4,1505.4,328.4,-0.7,1.8,2470.019,13.34,0.024,294.4
2019-07-20T01:07:03,42.805,6.029,-0.028,0.015,0.002,108.0,110.0,101.0,13.3,1505.4,326.2,-0.7,1.8,2470.051,13.34,0.031,298.2
2019-07-20T01:10:04,42.805,6.029,-0.03,0.01,-0.022,104.0,111.0,99.0,13.3,1505.4,328.1,-0.7,1.8,2470.084,13.34,0.031,288.4
2019-07-20T01:13:05,42.805,6.029,-0.024,0.0,-0.012,104.0,110.0,101.0,13.4,1505.4,324.7,-0.7,1.8,2470.009,13.34,0.024,270.0
2019-07-20T01:16:06,42.805,6.029,0.001,0.01,-0.012,104.0,108.0,101.0,13.4,1505.4,326.5,-0.7,1.8,2470.027,13.34,0.01,5.7
2019-07-20T01:19:07,42.805,6.029,-0.034,0.003,-0.023,107.0,111.0,102.0,13.3,1505.4,323.6,-0.7,1.8,2470.003,13.34,0.034,275.0
2019-07-20T01:22:08,42.805,6.029,-0.035,-0.014,-0.003,103.0,109.0,100.0,13.4,1505.4,325.8,-0.7,1.8,2470.092,13.34,0.037,248.2
2019-07-20T01:25:09,42.805,6.029,-0.017,0.009,-0.003,103.0,110.0,100.0,13.4,1505.4,322.6,-0.8,1.8,2470.033,13.34,0.019,297.9
2019-07-20T01:28:10,42.805,6.029,-0.039,0.007,-0.025,103.0,108.0,102.0,13.4,1505.4,326.7,-0.7,1.8,2470.034,13.34,0.039,280.2
2019-07-20T01:31:11,42.805,6.029,-0.025,0.004,0.007,105.0,110.0,100.0,13.4,1505.4,327.7,-0.8,1.8,2470.058,13.34,0.025,279.1
2019-07-20T01:34:12,42.805,6.029,0.001,0.024,-0.003,105.0,112.0,100.0,13.4,1505.4,323.5,-0.7,1.8,2470.048,13.34,0.024,2.4
2019-07-20T01:37:13,42.805,6.029,-0.032,0.011,-0.024,105.0,111.0,100.0,13.4,1505.4,324.1,-0.7,1.8,2470.088,13.34,0.033,289.0
2019-07-20T01:40:14,42.805,6.029,-0.036,0.002,-0.03,104.0,111.0,101.0,13.3,1505.4,323.8,-0.7,1.8,2470.037,13.34,0.036,273.2
2019-07-20T01:43:15,42.805,6.029,-0.009,0.01,-0.01,104.0,111.0,100.0,13.3,1505.4,325.4,-0.7,1.9,2470.036,13.34,0.013,318.0
2019-07-20T01:46:16,42.805,6.029,-0.028,0.024,0.0,105.0,111.0,99.0,13.3,1505.4,325.7,-0.7,1.8,2470.076,13.34,0.036,310.6
2019-07-20T01:49:17,42.805,6.029,-0.034,0.001,0.002,104.0,112.0,101.0,13.3,1505.4,326.4,-0.7,1.9,2470.054,13.34,0.034,271.7
2019-07-20T01:52:18,42.805,6.029,-0.021,0.012,-0.012,104.0,110.0,100.0,13.4,1505.4,327.9,-0.7,1.8,2470.032,13.34,0.024,299.7
2019-07-20T01:55:19,42.805,6.029,-0.012,0.009,-0.022,105.0,111.0,101.0,13.3,1505.4,323.1,-0.7,1.9,2470.09,13.34,0.015,306.9
2019-07-20T01:58:20,42.805,6.029,-0.003,0.033,-0.006,103.0,111.0,100.0,13.4,1505.4,324.8,-0.7,1.8,2470.109,13.34,0.033,354.8
2019-07-20T02:01:21,42.805,6.029,-0.014,0.008,-0.027,105.0,110.0,100.0,13.4,1505.4,323.3,-0.7,1.8,2470.057,13.34,0.016,299.7
2019-07-20T02:04:22,42.805,6.029,-0.015,0.007,-0.011,103.0,111.0,101.0,13.3,1505.4,327.5,-0.7,1.8,2470.015,13.34,0.016,295.0
2019-07-20T02:07:23,42.805,6.029,-0.045,0.012,-0.003,105.0,110.0,100.0,13.4,1505.4,326.5,-0.8,1.9,2470.044,13.34,0.046,284.9
2019-07-20T02:10:24,42.805,6.029,-0.034,0.01,-0.004,107.0,109.0,100.0,13.4,1505.4,327.2,-0.7,1.9,2470.02,13.34,0.035,286.4
2019-07-20T02:13:25,42.805,6.029,-0.028,0.012,-0.028,104.0,110.0,100.0,13.4,1505.4,327.0,-0.7,1.9,2469.982,13.34,0.03,293.2
2019-07-20T02:16:26,42.805,6.029,-0.028,0.011,-0.026,104.0,110.0,101.0,13.3,1505.4,328.2,-0.7,1.9,2470.006,13.34,0.03,291.4
2019-07-20T02:19:27,42.805,6.029,0.004,0.01,-0.014,104.0,109.0,100.0,13.4,1505.4,324.2,-0.7,1.8,2470.065,13.34,0.01,21.8
2019-07-20T02:22:28,42.805,6.029,-0.032,0.01,-0.034,103.0,109.0,100.0,13.4,1505.4,326.8,-0.7,1.8,2470.048,13.34,0.033,287.4
2019-07-20T02:25:29,42.805,6.029,-0.028,0.018,-0.035,103.0,109.0,100.0,13.4,1505.4,326.1,-0.7,1.8,2470.0,13.34,0.033,302.7
2019-07-20T02:28:30,42.805,6.029,-0.023,0.023,-0.007,104.0,109.0,100.0,13.3,1505.4,326.4,-0.7,1.8,2470.035,13.34,0.032,315.0
2019-07-20T02:31:31,42.805,6.029,-0.012,0.021,0.022,103.0,108.0,101.0,13.4,1505.4,327.6,-0.7,1.8,2470.018,13.34,0.024,330.3
2019-07-20T02:34:32,42.805,6.029,-0.013,-0.012,-0.05,102.0,110.0,101.0,13.4,1505.4,327.1,-0.7,1.9,2470.023,13.34,0.017,227.3
2019-07-20T02:37:33,42.805,6.029,-0.019,0.025,-0.009,105.0,108.0,101.0,13.4,1505.4,326.6,-0.7,1.8,2469.997,13.34,0.031,322.8
2019-07-20T02:40:34,42.805,6.029,-0.039,0.017,0.007,105.0,111.0,100.0,13.4,1505.4,325.2,-0.7,1.8,2470.006,13.34,0.042,293.5
2019-07-20T02:43:35,42.805,6.029,-0.019,-0.002,-0.043,105.0,110.0,99.0,13.4,1505.4,326.5,-0.8,1.9,2470.038,13.34,0.019,264.0
2019-07-20T02:46:36,42.805,6.029,-0.017,0.003,-0.007,104.0,110.0,100.0,13.4,1505.4,324.7,-0.7,1.8,2470.032,13.34,0.017,280.0
2019-07-20T02:49:37,42.805,6.029,-0.02,0.012,-0.013,104.0,110.0,101.0,13.4,1505.4,326.4,-0.7,1.8,2470.046,13.34,0.023,301.0
2019-07-20T02:52:38,42.805,6.029,-0.006,0.013,-0.011,104.0,109.0,101.0,13.4,1505.4,327.6,-0.8,1.8,2470.017,13.34,0.014,335.2
2019-07-20T02:55:39,42.805,6.029,-0.025,-0.002,-0.041,102.0,110.0,99.0,13.3,1505.4,326.2,-0.7,1.9,2470.006,13.34,0.025,265.4
2019-07-20T02:58:40,42.805,6.029,-0.036,-0.001,-0.014,103.0,111.0,101.0,13.4,1505.4,324.4,-0.7,1.8,2469.988,13.34,0.036,268.4
2019-07-20T03:01:41,42.805,6.029,-0.031,0.007,0.001,103.0,112.0,100.0,13.4,1505.4,325.1,-0.8,1.8,2469.988,13.34,0.031,282.7
2019-07-20T03:04:42,42.805,6.029,-0.014,-0.01,-0.013,106.0,111.0,100.0,13.3,1505.4,323.5,-0.7,1.8,2469.967,13.34,0.017,234.5
2019-07-20T03:07:43,42.805,6.029,-0.003,0.011,0.003,102.0,109.0,100.0,13.4,1505.4,327.1,-0.8,1.8,2470.032,13.34,0.011,344.7
2019-07-20T03:10:44,42.805,6.029,-0.022,0.004,-0.015,105.0,111.0,100.0,13.4,1505.3,324.5,-0.7,1.8,2470.043,13.33,0.022,280.3
2019-07-20T03:13:45,42.805,6.029,-0.015,0.024,-0.012,103.0,110.0,102.0,13.4,1505.3,327.0,-0.7,1.8,2470.016,13.33,0.028,328.0
2019-07-20T03:16:46,42.805,6.029,-0.007,0.0,0.003,106.0,111.0,101.0,13.3,1505.3,326.2,-0.7,1.8,2470.008,13.33,0.007,270.0
2019-07-20T03:19:47,42.805,6.029,-0.029,0.007,-0.023,104.0,111.0,101.0,13.3,1505.4,326.6,-0.7,1.8,2469.973,13.34,0.029,283.6
2019-07-20T03:22:48,42.805,6.029,-0.026,0.009,-0.048,103.0,111.0,101.0,13.4,1505.4,324.2,-0.8,1.8,2470.043,13.34,0.027,289.1
2019-07-20T03:25:49,42.805,6.029,-0.027,0.018,-0.008,106.0,111.0,101.0,13.4,1505.4,324.4,-0.7,1.8,2470.055,13.34,0.032,303.7
2019-07-20T03:28:50,42.805,6.029,-0.018,0.004,-0.02,104.0,111.0,101.0,13.3,1505.4,325.6,-0.7,1.8,2470.003,13.34,0.018,282.5
2019-07-20T03:31:51,42.805,6.029,-0.029,0.016,-0.044,106.0,110.0,103.0,13.3,1505.4,327.8,-0.7,1.8,2469.972,13.34,0.033,298.9
2019-07-20T03:34:52,42.805,6.029,-0.018,0.011,-0.023,105.0,111.0,101.0,13.4,1505.4,325.0,-0.7,1.8,2469.979,13.34,0.021,301.4
2019-07-20T03:37:53,42.805,6.029,-0.023,0.0,-0.001,105.0,110.0,101.0,13.4,1505.4,326.2,-0.7,1.9,2470.004,13.34,0.023,270.0
2019-07-20T03:40:54,42.805,6.029,-0.023,0.004,-0.018,106.0,111.0,101.0,13.3,1505.4,324.6,-0.7,1.9,2470.045,13.34,0.023,279.9
2019-07-20T03:43:55,42.805,6.029,-0.023,0.013,-0.046,106.0,111.0,100.0,13.3,1505.4,327.9,-0.7,1.9,2469.983,13.34,0.026,299.5
2019-07-20T03:46:56,42.805,6.029,-0.024,-0.002,-0.021,109.0,111.0,102.0,13.3,1505.4,325.2,-0.8,1.8,2470.015,13.34,0.024,265.2
2019-07-20T03:49:57,42.805,6.029,-0.006,0.02,0.006,106.0,110.0,102.0,13.4,1505.4,326.2,-0.7,1.8,2469.95,13.34,0.02,343.3
2019-07-20T03:52:58,42.805,6.029,-0.011,0.032,-0.007,104.0,111.0,103.0,13.3,1505.4,325.9,-0.7,1.8,2469.982,13.34,0.033,341.0
2019-07-20T03:55:59,42.805,6.029,0.009,0.009,0.007,106.0,112.0,102.0,13.4,1505.4,325.0,-0.7,1.9,2470.004,13.34,0.012,45.0
2019-07-20T03:59:00,42.805,6.029,-0.013,0.005,-0.007,106.0,110.0,101.0,13.4,1505.4,324.8,-0.7,1.8,2469.98,13.34,0.013,291.0
2019-07-20T04:02:01,42.805,6.029,-0.054,0.001,-0.024,106.0,110.0,102.0,13.4,1505.4,327.1,-0.7,1.8,2470.028,13.34,0.054,271.1
2019-07-20T04:05:02,42.805,6.029,-0.028,0.013,-0.003,106.0,112.0,101.0,13.4,1505.4,326.2,-0.7,1.8,2470.027,13.34,0.03,294.9
2019-07-20T04:08:03,42.805,6.029,-0.007,0.006,-0.012,106.0,111.0,101.0,13.4,1505.4,324.9,-0.7,1.8,2470.037,13.34,0.009,310.6
2019-07-20T04:11:04,42.805,6.029,-0.013,0.005,-0.005,105.0,112.0,100.0,13.3,1505.4,323.8,-0.7,1.8,2470.018,13.34,0.013,291.0
2019-07-20T04:14:05,42.805,6.029,-0.025,0.011,-0.019,104.0,110.0,100.0,13.4,1505.4,328.4,-0.7,1.8,2470.04,13.34,0.027,293.7
2019-07-20T04:17:06,42.805,6.029,-0.04,0.003,0.01,105.0,111.0,101.0,13.3,1505.4,325.6,-0.7,1.8,2469.998,13.34,0.04,274.3
2019-07-20T04:20:07,42.805,6.029,-0.03,0.005,0.002,106.0,111.0,100.0,13.3,1505.4,323.9,-0.7,1.8,2469.987,13.34,0.03,279.5
2019-07-20T04:23:08,42.805,6.029,-0.013,0.017,-0.03,106.0,109.0,101.0,13.4,1505.4,325.9,-0.7,1.8,2469.985,13.34,0.021,322.6
2019-07-20T04:26:09,42.805,6.029,-0.018,0.012,-0.011,105.0,110.0,101.0,13.4,1505.4,326.3,-0.7,1.8,2469.994,13.34,0.021,303.7
2019-07-20T04:29:10,42.805,6.029,-0.024,0.028,0.01,106.0,110.0,101.0,13.4,1505.4,325.1,-0.7,1.8,2470.015,13.34,0.036,319.4
2019-07-20T04:32:11,42.805,6.029,-0.04,0.017,0.0,105.0,110.0,101.0,13.4,1505.4,323.2,-0.7,1.8,2470.015,13.34,0.043,293.0
2019-07-20T04:35:12,42.805,6.029,-0.011,0.008,-0.029,108.0,110.0,101.0,13.4,1505.4,327.9,-0.7,1.8,2469.98,13.34,0.013,306.0
2019-07-20T04:38:13,42.805,6.029,-0.021,0.011,-0.013,106.0,108.0,101.0,13.3,1505.4,324.8,-0.7,1.9,2470.001,13.34,0.023,297.6
2019-07-20T04:41:14,42.805,6.029,-0.021,0.028,0.017,105.0,110.0,101.0,13.3,1505.4,326.0,-0.7,1.8,2470.044,13.34,0.035,323.1
2019-07-20T04:44:15,42.805,6.029,-0.003,0.004,0.016,106.0,110.0,101.0,13.3,1505.4,324.2,-0.7,1.9,2469.95,13.34,0.005,323.1
2019-07-20T04:47:16,42.805,6.029,-0.026,0.024,-0.028,104.0,111.0,100.0,13.4,1505.4,328.3,-0.7,1.8,2470.015,13.34,0.035,312.7
2019-07-20T04:50:17,42.805,6.029,0.002,0.0,-0.019,105.0,110.0,101.0,13.4,1505.4,324.5,-0.7,1.8,2469.994,13.34,0.002,90.0
2019-07-20T04:53:18,42.805,6.029,0.0,-0.003,-0.011,104.0,111.0,101.0,13.3,1505.4,326.4,-0.7,1.9,2469.989,13.34,0.003,180.0
2019-07-20T04:56:19,42.805,6.029,-0.008,0.007,-0.03,104.0,111.0,101.0,13.4,1505.4,326.8,-0.7,1.8,2470.008,13.34,0.01,311.2
2019-07-20T04:59:20,42.805,6.029,-0.024,-0.004,-0.028,104.0,112.0,101.0,13.4,1505.4,323.4,-0.7,1.9,2470.012,13.34,0.024,260.5
2019-07-20T05:02:21,42.805,6.029,-0.028,0.009,-0.027,106.0,111.0,101.0,13.3,1505.3,323.0,-0.7,1.8,2469.978,13.33,0.029,287.8
2019-07-20T05:05:22,42.805,6.029,-0.02,0.018,-0.017,106.0,110.0,101.0,13.4,1505.3,328.3,-0.7,1.8,2469.996,13.33,0.026,312.0
2019-07-20T05:08:23,42.805,6.029,-0.027,0.007,-0.035,104.0,112.0,101.0,13.4,1505.4,325.6,-0.7,1.8,2470.005,13.34,0.027,284.5
2019-07-20T05:11:24,42.805,6.029,-0.014,0.014,0.015,108.0,111.0,103.0,13.4,1505.3,326.3,-0.7,1.8,2470.004,13.33,0.019,315.0
2019-07-20T05:14:25,42.805,6.029,-0.011,0.002,-0.016,106.0,113.0,101.0,13.4,1505.3,324.7,-0.7,1.8,2470.077,13.33,0.011,280.3
2019-07-20T05:17:26,42.805,6.029,0.0,0.003,-0.015,105.0,111.0,101.0,13.4,1505.4,323.0,-0.8,1.8,2470.019,13.34,0.003,0.0
2019-07-20T05:20:27,42.805,6.029,-0.001,0.027,0.018,106.0,110.0,102.0,13.4,1505.3,327.5,-0.7,1.8,2469.997,13.33,0.027,357.9
2019-07-20T05:23:28,42.805,6.029,-0.016,0.032,-0.041,105.0,111.0,99.0,13.3,1505.3,325.0,-0.7,1.8,2470.051,13.33,0.035,333.4
2019-07-20T05:26:29,42.805,6.029,-0.041,0.014,-0.034,104.0,111.0,100.0,13.4,1505.3,325.8,-0.7,1.8,2469.981,13.33,0.043,288.9
2019-07-20T05:29:30,42.805,6.029,-0.005,0.016,-0.028,105.0,110.0,101.0,13.4,1505.3,328.1,-0.7,1.9,2470.04,13.33,0.016,342.6
2019-07-20T05:32:31,42.805,6.029,-0.025,0.013,-0.019,105.0,112.0,103.0,13.4,1505.3,325.1,-0.7,1.8,2470.056,13.33,0.028,297.5
2019-07-20T05:35:32,42.805,6.029,-0.033,0.014,0.0,104.0,111.0,101.0,13.4,1505.3,326.5,-0.7,1.8,2470.0,13.33,0.035,293.0
2019-07-20T05:38:33,42.805,6.029,-0.015,0.013,-0.007,105.0,110.0,101.0,13.4,1505.3,323.4,-0.7,1.8,2470.047,13.33,0.019,310.9
2019-07-20T05:41:34,42.805,6.029,0.007,0.025,0.004,103.0,110.0,101.0,13.4,1505.3,327.3,-0.7,1.9,2470.013,13.33,0.025,15.6
2019-07-20T05:44:35,42.805,6.029,0.0,0.015,-0.004,104.0,110.0,101.0,13.3,1505.3,325.6,-0.7,1.8,2470.004,13.33,0.015,0.0
2019-07-20T05:47:36,42.805,6.029,-0.017,0.02,0.009,104.0,112.0,100.0,13.4,1505.3,324.1,-0.8,1.8,2470.025,13.33,0.026,319.6
2019-07-20T05:50:37,42.805,6.029,-0.005,0.004,0.018,104.0,110.0,100.0,13.4,1505.3,326.1,-0.7,1.9,2470.047,13.33,0.006,308.7
2019-07-20T05:53:38,42.805,6.029,-0.008,0.01,-0.019,105.0,110.0,101.0,13.4,1505.3,327.9,-0.7,1.8,2470.018,13.33,0.012,321.3
2019-07-20T05:56:39,42.805,6.029,-0.028,0.012,0.0,104.0,111.0,102.0,13.4,1505.3,324.6,-0.7,1.8,2470.042,13.33,0.03,293.2
2019-07-20T05:59:40,42.805,6.029,-0.036,0.021,0.009,104.0,110.0,101.0,13.3,1505.3,327.0,-0.7,1.8,2470.009,13.33,0.041,300.3
2019-07-20T06:02:41,42.805,6.029,-0.024,0.016,0.006,103.0,111.0,100.0,13.4,1505.3,324.8,-0.7,1.8,2470.086,13.33,0.028,303.7
2019-07-20T06:05:42,42.805,6.029,-0.028,0.02,-0.034,103.0,111.0,101.0,13.4,1505.3,328.3,-0.7,1.8,2470.019,13.33,0.034,305.5
2019-07-20T06:08:43,42.805,6.029,-0.047,-0.004,-0.025,104.0,112.0,100.0,13.4,1505.3,325.3,-0.7,1.8,2470.081,13.33,0.047,265.1
2019-07-20T06:11:44,42.805,6.029,-0.011,0.004,0.013,103.0,111.0,101.0,13.4,1505.3,326.1,-0.7,1.8,2470.072,13.33,0.011,290.0
2019-07-20T06:14:45,42.805,6.029,0.001,0.012,-0.018,105.0,111.0,99.0,13.4,1505.3,325.4,-0.7,1.9,2470.023,13.33,0.012,4.8
2019-07-20T06:17:46,42.805,6.029,-0.011,0.017,-0.025,104.0,109.0,100.0,13.4,1505.3,324.7,-0.7,1.9,2470.024,13.33,0.02,327.1
2019-07-20T06:20:47,42.805,6.029,-0.028,0.015,-0.032,104.0,111.0,100.0,13.4,1505.3,323.4,-0.7,1.8,2470.096,13.33,0.031,298.2
2019-07-20T06:23:48,42.805,6.029,-0.016,0.03,0.01,104.0,109.0,100.0,13.4,1505.3,323.6,-0.7,1.9,2470.079,13.33,0.034,331.9
2019-07-20T06:26:49,42.805,6.029,-0.021,0.011,-0.013,104.0,109.0,101.0,13.4,1505.3,327.9,-0.7,1.8,2470.008,13.33,0.023,297.6
2019-07-20T06:29:50,42.805,6.029,-0.026,0.019,0.011,104.0,110.0,100.0,13.4,1505.3,324.7,-0.7,1.8,2470.029,13.33,0.032,306.2
2019-07-20T06:32:51,42.805,6.029,0.007,0.026,-0.004,105.0,110.0,101.0,13.4,1505.3,326.3,-0.7,1.9,2470.043,13.33,0.026,15.1
2019-07-20T06:35:52,42.805,6.029,-0.001,0.037,-0.007,105.0,110.0,102.0,13.3,1505.3,325.2,-0.7,1.8,2470.063,13.33,0.037,358.5
2019-07-20T06:38:53,42.805,6.029,-0.018,0.002,0.009,105.0,109.0,101.0,13.4,1505.3,324.3,-0.7,1.9,2470.081,13.33,0.018,276.3
2019-07-20T06:41:54,42.805,6.029,0.0,0.02,0.009,104.0,111.0,100.0,13.3,1505.3,327.3,-0.7,1.9,2470.085,13.33,0.02,0.0
2019-07-20T06:44:55,42.805,6.029,-0.022,0.009,0.015,104.0,111.0,99.0,13.4,1505.3,324.8,-0.7,1.8,2470.108,13.33,0.023,292.2
2019-07-20T06:47:56,42.805,6.029,-0.021,0.022,-0.03,104.0,111.0,101.0,13.3,1505.3,325.7,-0.7,1.8,2470.053,13.33,0.03,316.3
2019-07-20T06:50:57,42.805,6.029,-0.021,0.012,-0.005,104.0,109.0,102.0,13.3,1505.3,324.5,-0.7,1.9,2470.086,13.33,0.024,299.7
2019-07-20T06:53:58,42.805,6.029,-0.014,0.015,-0.01,106.0,110.0,100.0,13.4,1505.3,326.6,-0.7,1.8,2470.112,13.33,0.02,317.0
2019-07-20T06:56:59,42.805,6.029,-0.014,0.011,-0.017,104.0,111.0,101.0,13.4,1505.3,327.0,-0.7,1.9,2470.117,13.33,0.017,308.2
2019-07-20T07:00:00,42.805,6.029,-0.029,0.028,-0.04,106.0,111.0,101.0,13.4,1505.3,326.0,-0.7,1.8,2470.089,13.33,0.04,314.0
2019-07-20T07:03:01,42.805,6.029,-0.016,0.018,-0.034,104.0,110.0,101.0,13.3,1505.3,326.2,-0.7,1.8,2470.087,13.33,0.024,318.4
2019-07-20T07:06:02,42.805,6.029,-0.013,0.016,-0.007,105.0,110.0,101.0,13.4,1505.3,323.2,-0.8,1.8,2470.073,13.33,0.02,320.9
2019-07-20T07:09:03,42.805,6.029,0.004,0.02,-0.019,105.0,112.0,100.0,13.4,1505.3,326.9,-0.8,1.8,2470.151,13.33,0.02,11.3
2019-07-20T07:12:04,42.805,6.029,-0.021,0.006,-0.014,105.0,110.0,100.0,13.3,1505.3,324.7,-0.7,1.8,2470.073,13.33,0.021,285.9
2019-07-20T07:15:05,42.805,6.029,-0.047,0.012,-0.013,105.0,111.0,101.0,13.3,1505.3,323.0,-0.7,1.8,2470.11,13.33,0.048,284.3
2019-07-20T07:18:06,42.805,6.029,-0.025,0.049,-0.001,106.0,111.0,103.0,13.4,1505.3,325.8,-0.7,1.9,2470.06,13.33,0.055,333.0
2019-07-20T07:21:07,42.805,6.029,0.002,0.014,0.007,106.0,110.0,102.0,13.4,1505.3,327.8,-0.7,1.9,2470.111,13.33,0.014,8.1
2019-07-20T07:24:08,42.805,6.029,0.005,0.004,-0.015,107.0,110.0,101.0,13.3,1505.3,326.9,-0.8,1.8,2470.092,13.33,0.006,51.3
2019-07-20T07:27:09,42.805,6.029,-0.02,0.018,0.002,105.0,111.0,102.0,13.3,1505.4,326.9,-0.8,1.8,2470.132,13.34,0.026,312.0
2019-07-20T07:30:10,42.805,6.029,-0.014,0.017,0.014,106.0,110.0,102.0,13.4,1505.4,325.8,-0.8,1.9,2470.107,13.34,0.022,320.5
2019-07-20T07:33:11,42.805,6.029,0.003,0.028,-0.035,105.0,111.0,103.0,13.4,1505.3,328.4,-0.7,1.8,2470.141,13.33,0.028,6.1
2019-07-20T07:36:12,42.805,6.029,0.011,0.032,0.005,106.0,111.0,102.0,13.4,1505.3,324.7,-0.7,1.8,2470.099,13.33,0.033,19.0
2019-07-20T07:39:13,42.805,6.029,-0.006,0.029,0.001,108.0,112.0,101.0,13.3,1505.3,323.7,-0.7,1.9,2470.167,13.33,0.029,348.3
2019-07-20T07:42:14,42.805,6.029,-0.01,0.022,0.009,105.0,113.0,101.0,13.4,1505.3,327.1,-0.7,1.8,2470.164,13.33,0.024,335.6
2019-07-20T07:45:15,42.805,6.029,-0.009,0.008,0.012,105.0,112.0,102.0,13.4,1505.3,324.9,-0.7,1.9,2470.117,13.33,0.012,311.6
2019-07-20T07:48:16,42.805,6.029,0.002,0.006,0.011,107.0,112.0,103.0,13.3,1505.3,325.8,-0.7,1.9,2470.096,13.33,0.006,18.4
2019-07-20T07:51:17,42.805,6.029,-0.008,0.01,-0.021,107.0,112.0,102.0,13.4,1505.3,328.1,-0.7,1.8,2470.136,13.33,0.012,321.3
2019-07-20T07:54:18,42.805,6.029,-0.001,0.045,-0.011,105.0,113.0,101.0,13.4,1505.3,324.5,-0.7,1.8,2470.136,13.33,0.045,358.7
2019-07-20T07:57:19,42.805,6.029,-0.006,0.018,0.0,106.0,111.0,102.0,13.4,1505.3,323.5,-0.8,1.8,2470.129,13.33,0.018,341.6
2019-07-20T08:00:20,42.805,6.029,0.0,0.016,-0.018,105.0,113.0,101.0,13.4,1505.3,327.2,-0.7,1.8,2470.083,13.33,0.016,0.0
2019-07-20T08:03:21,42.805,6.029,-0.013,0.028,0.002,106.0,114.0,101.0,13.3,1505.3,324.8,-0.8,1.9,2470.096,13.33,0.03,335.1
2019-07-20T08:06:22,42.805,6.029,-0.002,0.028,0.021,105.0,112.0,102.0,13.4,1505.3,325.5,-0.7,1.8,2470.159,13.33,0.028,355.9
2019-07-20T08:09:23,42.805,6.029,-0.016,0.01,0.017,105.0,114.0,102.0,13.3,1505.3,327.7,-0.7,1.8,2470.123,13.33,0.018,302.0
2019-07-20T08:12:24,42.805,6.029,-0.009,0.002,-0.037,107.0,114.0,101.0,13.3,1505.3,325.4,-0.8,1.8,2470.089,13.33,0.009,282.5
2019-07-20T08:15:25,42.805,6.029,-0.024,0.0,-0.006,105.0,114.0,102.0,13.4,1505.3,324.7,-0.7,1.9,2470.12,13.33,0.024,270.0
2019-07-20T08:18:26,42.805,6.029,-0.015,0.033,0.004,104.0,114.0,100.0,13.4,1505.3,324.7,-0.8,1.8,2470.107,13.33,0.036,335.6
2019-07-20T08:21:27,42.805,6.029,0.002,0.022,0.026,106.0,111.0,101.0,13.4,1505.3,327.2,-0.7,1.8,2470.103,13.33,0.022,5.2
2019-07-20T08:24:28,42.805,6.029,-0.032,0.041,0.006,105.0,111.0,102.0,13.4,1505.3,324.1,-0.7,1.8,2470.113,13.33,0.052,322.0
2019-07-20T08:27:29,42.805,6.029,-0.01,0.026,0.005,106.0,114.0,101.0,13.3,1505.3,323.5,-0.7,1.9,2470.117,13.33,0.027,339.0
2019-07-20T08:30:30,42.805,6.029,-0.013,0.037,0.019,105.0,115.0,101.0,13.4,1505.3,325.0,-0.7,1.8,2470.09,13.33,0.039,340.6
2019-07-20T08:33:31,42.805,6.029,0.003,0.033,-0.015,106.0,113.0,101.0,13.4,1505.3,328.1,-0.7,1.8,2470.13,13.33,0.033,5.2
2019-07-20T08:36:32,42.805,6.029,-0.021,0.023,0.005,105.0,114.0,101.0,13.3,1505.3,324.6,-0.8,1.8,2470.119,13.33,0.031,317.6
2019-07-20T08:39:33,42.805,6.029,0.022,0.027,-0.01,106.0,113.0,101.0,13.4,1505.3,325.8,-0.7,1.8,2470.109,13.33,0.034,39.2
2019-07-20T08:42:34,42.805,6.029,-0.015,0.008,-0.021,105.0,114.0,101.0,13.4,1505.3,324.4,-0.7,1.8,2470.146,13.33,0.017,298.1
2019-07-20T08:45:35,42.805,6.029,-0.017,0.019,-0.018,105.0,113.0,102.0,13.4,1505.3,324.9,-0.7,1.9,2470.161,13.33,0.025,318.2
2019-07-20T08:48:36,42.805,6.029,-0.016,0.033,-0.026,105.0,114.0,101.0,13.3,1505.3,325.0,-0.7,1.9,2470.103,13.33,0.036,334.1
2019-07-20T08:51:37,42.805,6.029,-0.021,0.009,-0.02,106.0,113.0,102.0,13.3,1505.3,325.7,-0.7,1.9,2470.117,13.33,0.022,293.2
2019-07-20T08:54:38,42.805,6.029,0.003,0.018,0.021,105.0,113.0,100.0,13.3,1505.3,324.9,-0.7,1.8,2470.142,13.33,0.018,9.5
2019-07-20T08:57:39,42.805,6.029,-0.02,0.006,-0.016,105.0,111.0,102.0,13.3,1505.3,323.2,-0.7,1.9,2470.157,13.33,0.02,286.7
2019-07-20T09:00:40,42.805,6.029,-0.018,0.021,-0.033,106.0,111.0,102.0,13.4,1505.3,325.6,-0.7,1.8,2470.139,13.33,0.027,319.4
2019-07-20T09:03:41,42.805,6.029,-0.008,0.015,0.013,105.0,111.0,102.0,13.4,1505.3,326.2,-0.7,1.8,2470.137,13.33,0.017,331.9
2019-07-20T09:06:42,42.805,6.029,-0.005,0.027,0.016,106.0,112.0,100.0,13.3,1505.3,323.5,-0.7,1.8,2470.118,13.33,0.027,349.5
2019-07-20T09:09:43,42.805,6.029,0.018,0.009,0.027,105.0,112.0,101.0,13.4,1505.3,323.6,-0.8,1.8,2470.103,13.33,0.02,63.4
2019-07-20T09:12:44,42.805,6.029,-0.004,0.01,0.02,106.0,115.0,101.0,13.4,1505.3,324.9,-0.7,1.8,2470.167,13.33,0.01,338.2
2019-07-20T09:15:45,42.805,6.029,-0.018,0.014,-0.015,106.0,113.0,103.0,13.4,1505.3,323.2,-0.7,1.9,2470.083,13.33,0.022,307.9
2019-07-20T09:18:46,42.805,6.029,-0.008,0.017,-0.015,105.0,113.0,102.0,13.4,1505.3,325.6,-0.7,1.9,2470.132,13.33,0.018,334.8
2019-07-20T09:21:47,42.805,6.029,-0.011,0.008,-0.018,107.0,112.0,101.0,13.3,1505.3,323.7,-0.7,1.9,2470.108,13.33,0.013,306.0
2019-07-20T09:24:48,42.805,6.029,-0.012,0.007,-0.011,108.0,111.0,102.0,13.4,1505.3,325.3,-0.7,1.9,2470.136,13.33,0.013,300.3
2019-07-20T09:27:49,42.805,6.029,0.003,0.016,0.003,106.0,110.0,100.0,13.4,1505.3,324.9,-0.7,1.8,2470.157,13.33,0.016,10.6
2019-07-20T09:30:50,42.805,6.029,-0.018,0.027,-0.006,104.0,115.0,101.0,13.4,1505.3,324.9,-0.7,1.9,2470.133,13.33,0.032,326.3